STARLINK-11196, 60408

Orbit data source: Space-Track

STARLINK-11196, 60408 is a payload satellite owned by SpaceX/Seattle (US) in LEO that was launched on Sat, 10 Aug 2024 UTC via an FALCON 9 launch vehicle from the Air Force Eastern Test Range (AFETR). Payload-class satellites include a variety of spacecraft equipped with specific instruments for various scientific and technological missions. These include communications satellites like Starlink; space stations such as the ISS; scientific satellites like the Hubble; Earth observation satellites from companies like Planet Labs, Umbra, and HawkEye 360; GPS; miniature CubeSats for education and research; and military/defense satellites.

Loading next visibility...
Identifier
60408, 2024-141L
Orbit
LEO
Country
Flag of USUS
Related business
Manufacturer
SpaceX/Seattle
Mission
Operational Commercial Communications
Bus & Motor
STARLINK V2MD, Unknown motor
Mass
960 kg wet, ~910 kg dry
Launch date (UTC)
2024-08-10 (1 year ago)
Launch vehicle
FALCON 9
Launch site
Air Force Eastern Test Range (AFETR)
Object type
Payload
Rocket body
Debris
Shape & HBR
Box + 2 Pan, 14.5 m
Radar Cross Section
36.964 m², Large (>1 m²)

Expand to show TLE details & history
Last TLE update: 1 day ago

TLE from 1 day ago
0 STARLINK-11196
1 60408U 24141L   25260.01073184 -.00002257  00000-0 -13789-4 0  9999
2 60408  53.1620 222.5080 0000561  93.2644 266.8438 15.69700388 64460
Epoch: 2025-09-17T00:15Z
TLE epoch observation values (Epoch: 2025-09-17T00:15:27.23Z)
Latitude
-0.00006°
Longitude
-137.54832°
Altitude
360.69 km
Speed
7.694 km/s
True Right ascension
14h 50m 01s
True Declination
0° 00' 00"
Sunlit
Object was in daylight at epoch
Visualization orbit readout
Latitude
Unknown
Longitude
Unknown
Altitude
Unknown
Speed
Unknown
Apparent Right ascension
Unknown
Apparent Declination
Unknown
Sunlit
N/A
Visualization observer readout
Local Sidereal Time
22:02:04
Azimuth
Unknown
Elevation
Unknown
Doppler factor
Unknown
Orbital elements
Apogee altitude
360.393 km
Perigee altitude
359.637 km
Semi-major axis
6,738.152 km
Eccentricity
0.00006
Inclination
53.162°
RAAN
222.508°
Arg. of periapsis
93.2644°
True anomaly
266.83738°
Mean anomaly
266.8438°
Eccentric anomaly
266.84059°
Mean motion
3.92403 °/min
Orbital period
91.74 mins
BSTAR
-0.000013789
Loading maneuver chart data...
Computing Atmospheric mass density...
Loading historical data...
Loading historical data...
Loading historical data...
Loading historical data...
Loading historical data...
Loading historical data...
Loading historical data...

Documentation

Showing up to 5 results
|